Address 0x95ddd98f8302a4124f6c7ba2e0adb7e72d40e914

Overview

Balance:
21.03640547842881474 FTM

FTM Value:
$49.08 (@ $2.33/FTM)

Token:
Txn Hash Method
Block
From
To
Value [Txn Fee]
0x1f73745e0d772029867f2fe69a8492997b36e167a9dba6ba1bafcebe29f887c50xb3d16931195776882021-10-20 9:34:1638 mins ago0x95ddd98f8302a4124f6c7ba2e0adb7e72d40e914OUT 0xe836817fca0562b0e4cf6b819a12a1b1c8e216a40 FTM0.0220871
0x669d846d10be869aa9549948fe0b39e17a47a793372f4bc959e117b5450f8a210xb3d16931195757312021-10-20 9:05:111 hr 7 mins ago0x95ddd98f8302a4124f6c7ba2e0adb7e72d40e914OUT 0xe836817fca0562b0e4cf6b819a12a1b1c8e216a40 FTM0.010256410147
0x3ae097237c2a00ace4b853fe89919df659b31d1ec6c4071f02e55f9e728cb6510xb3d16931195712642021-10-20 7:58:282 hrs 14 mins ago0x95ddd98f8302a4124f6c7ba2e0adb7e72d40e914OUT 0xe836817fca0562b0e4cf6b819a12a1b1c8e216a40 FTM0.009452351136
0x4d5f196751119041626c9906e640132cbfb99afacd3cd284bd2dfe0421aaec150xb3d16931195680332021-10-20 6:59:423 hrs 12 mins ago0x95ddd98f8302a4124f6c7ba2e0adb7e72d40e914OUT 0xe836817fca0562b0e4cf6b819a12a1b1c8e216a40 FTM0.01085543374
0xa1d3b1610db7a1c1d3929d3b991b47c5e8ae740ded655f7509a83a3c87a3a9c80xb3d16931195646542021-10-20 6:03:314 hrs 9 mins ago0x95ddd98f8302a4124f6c7ba2e0adb7e72d40e914OUT 0xe836817fca0562b0e4cf6b819a12a1b1c8e216a40 FTM0.011577096867
0xd34de3eaf7d1ab4a07c60f0005e3f53f7b6c03e0a31840e727fbad54d126f64f0xb3d16931195626042021-10-20 5:29:044 hrs 43 mins ago0x95ddd98f8302a4124f6c7ba2e0adb7e72d40e914OUT 0xe836817fca0562b0e4cf6b819a12a1b1c8e216a40 FTM0.022686646905
0xb14bfaf2893a4c8e8754d29defd69f5862f89c7b1768f01d7f1f5e4c0629f9500xb3d16931195623422021-10-20 5:23:224 hrs 49 mins ago0x95ddd98f8302a4124f6c7ba2e0adb7e72d40e914OUT 0xe836817fca0562b0e4cf6b819a12a1b1c8e216a40 FTM0.012936016494
0x6311fcec2ecb94d25f531ac74c339c6a132fcf14fa64ce111cd4eeddce4225eb0xb3d16931195603032021-10-20 4:41:425 hrs 30 mins ago0x95ddd98f8302a4124f6c7ba2e0adb7e72d40e914OUT 0xe836817fca0562b0e4cf6b819a12a1b1c8e216a40 FTM0.01547643536
0x2912682f1e59c32cf8b54b68644f3bb7331755cd99d62872ea14f60c22fb510b0xb3d16931195591752021-10-20 4:19:455 hrs 52 mins ago0x95ddd98f8302a4124f6c7ba2e0adb7e72d40e914OUT 0xe836817fca0562b0e4cf6b819a12a1b1c8e216a40 FTM0.024887602637
0x6c088557a38a158363447865b3d0745b9a222cfcfdc9f83c95ac697b5e9f8ba70xb3d16931195579152021-10-20 3:59:266 hrs 13 mins ago0x95ddd98f8302a4124f6c7ba2e0adb7e72d40e914OUT 0xe836817fca0562b0e4cf6b819a12a1b1c8e216a40 FTM0.1107324
0xcf1616fda86a0918130374bb2d1529a9cafb9020178fdd987db9e7bd15611d240xb3d16931195565442021-10-20 3:36:206 hrs 36 mins ago0x95ddd98f8302a4124f6c7ba2e0adb7e72d40e914OUT 0xe836817fca0562b0e4cf6b819a12a1b1c8e216a40 FTM0.030303022911
0x821fb7d12476588bd7b01723452e98b000fc330297b7e3d873ee4781d06648060xb3d16931195557492021-10-20 3:22:556 hrs 49 mins ago0x95ddd98f8302a4124f6c7ba2e0adb7e72d40e914OUT 0xe836817fca0562b0e4cf6b819a12a1b1c8e216a40 FTM0.015777564522
0xc0e7363257ec2c7130047462973279cbaf9715e41450af955f3ab68b8a4480f00xb3d16931195555192021-10-20 3:17:486 hrs 54 mins ago0x95ddd98f8302a4124f6c7ba2e0adb7e72d40e914OUT 0xe836817fca0562b0e4cf6b819a12a1b1c8e216a40 FTM0.015894514296
0xad8de3d65e2eb8c4a85465c76ec7301fbc891dfcc90590d34fef76208861e0720xb3d16931195544162021-10-20 2:58:077 hrs 14 mins ago0x95ddd98f8302a4124f6c7ba2e0adb7e72d40e914OUT 0xe836817fca0562b0e4cf6b819a12a1b1c8e216a40 FTM0.010942925928
0x84e31d303d5f4310baffc4e0fc51df2de26dea92f92a84b1d71fa15c2b9f5d690xb3d16931195526592021-10-20 2:29:187 hrs 43 mins ago0x95ddd98f8302a4124f6c7ba2e0adb7e72d40e914OUT 0xe836817fca0562b0e4cf6b819a12a1b1c8e216a40 FTM0.010701267432
0x8ba709c95106990abe3c53a688f7b819d4bc7ee3768bfad06602292a529a51e50xb3d16931195502462021-10-20 1:52:148 hrs 20 mins ago0x95ddd98f8302a4124f6c7ba2e0adb7e72d40e914OUT 0xe836817fca0562b0e4cf6b819a12a1b1c8e216a40 FTM0.009230740555
0xa95516c9783ade5f13ad1e1f58568ac6859845c236a806851b19f5bcaac9b2940xb3d16931195480572021-10-20 1:16:398 hrs 55 mins ago0x95ddd98f8302a4124f6c7ba2e0adb7e72d40e914OUT 0xe836817fca0562b0e4cf6b819a12a1b1c8e216a40 FTM0.007438658972
0xb10add9c8d2a724e18587f74e0b982ff3785d8beb92226ed617e83fbae1c3b210xb3d16931195442742021-10-20 0:05:4410 hrs 6 mins ago0x95ddd98f8302a4124f6c7ba2e0adb7e72d40e914OUT 0xe836817fca0562b0e4cf6b819a12a1b1c8e216a40 FTM0.011677989236
0x7814a36d9978f997c08faab8e316858e70312bec4b2088c7c2fd407a4f5e87bc0xb3d16931195415072021-10-19 23:17:3610 hrs 54 mins ago0x95ddd98f8302a4124f6c7ba2e0adb7e72d40e914OUT 0xe836817fca0562b0e4cf6b819a12a1b1c8e216a40 FTM0.028082180937
0xb8971552b026f2313e6c3ef00295fd4927fda4a3557cd0824ce9e5ec7073a64d0xb3d16931195389632021-10-19 22:39:5611 hrs 32 mins ago0x95ddd98f8302a4124f6c7ba2e0adb7e72d40e914OUT 0xe836817fca0562b0e4cf6b819a12a1b1c8e216a40 FTM0.014442536041
0x7457ba9f168e9a20245f10da9787d2d4c76c94b5b8eba05431e3b0746652cbaf0xb3d16931195379182021-10-19 22:23:4411 hrs 48 mins ago0x95ddd98f8302a4124f6c7ba2e0adb7e72d40e914OUT 0xe836817fca0562b0e4cf6b819a12a1b1c8e216a40 FTM0.010721612837
0x771747a83fa5d53a09b86c918f89e97b5ddda99b0a50c664b14f958e8949faca0xb3d16931195363872021-10-19 21:54:3712 hrs 17 mins ago0x95ddd98f8302a4124f6c7ba2e0adb7e72d40e914OUT 0xe836817fca0562b0e4cf6b819a12a1b1c8e216a40 FTM0.023027242861
0x0123ad23fe3daff0c0ff3ba6d60e37ca5a8c4091fc3e15bb773ec66103a63eb40xb3d16931195334832021-10-19 21:11:5713 hrs ago0x95ddd98f8302a4124f6c7ba2e0adb7e72d40e914OUT 0xe836817fca0562b0e4cf6b819a12a1b1c8e216a40 FTM0.016050483373
0x2497c795414d020f58a4ba76ad4e90c0d54ca9332b19f5c2196fcb97067aa1bf0xb3d16931195310212021-10-19 20:36:1113 hrs 36 mins ago0x95ddd98f8302a4124f6c7ba2e0adb7e72d40e914OUT 0xe836817fca0562b0e4cf6b819a12a1b1c8e216a40 FTM0.022358162549
0xed1fbfea96e8e61ec8fe621d0eb5d857c87a9dfdf65495f8416ccbb44cc4ecbe0xb3d16931195303592021-10-19 20:26:2413 hrs 46 mins ago0x95ddd98f8302a4124f6c7ba2e0adb7e72d40e914OUT 0xe836817fca0562b0e4cf6b819a12a1b1c8e216a40 FTM0.0186071238
[ Download CSV Export 
Latest 9 internal transactions
Parent Txn Hash Block From To Value
0x477f32ce01c3270ba78010ad4389c9c72bda9217424ff66a87994f8eb8d086d1187650152021-10-10 16:52:409 days 17 hrs ago 0x2aebec482a121e9181c6f4300d895781992efbed0x95ddd98f8302a4124f6c7ba2e0adb7e72d40e91430 FTM
0x883c056a811cbded85b709bed853567f1f2d45bc7b590f80e73cf850511d5c97181024802021-10-02 0:37:4818 days 9 hrs ago 0x2aebec482a121e9181c6f4300d895781992efbed0x95ddd98f8302a4124f6c7ba2e0adb7e72d40e91420 FTM
0xc3ddabeba4a47f252ccbbd88d6db104d083f99eb08776bd8e8504906d39c32b0170063302021-09-13 16:23:4236 days 17 hrs ago 0x2aebec482a121e9181c6f4300d895781992efbed0x95ddd98f8302a4124f6c7ba2e0adb7e72d40e91420 FTM
0x0d6e772783f7e6847e609ad0e89f17ac7e0693900e7925bab1527fda88205dcb166034702021-09-07 15:24:1142 days 18 hrs ago 0x2aebec482a121e9181c6f4300d895781992efbed0x95ddd98f8302a4124f6c7ba2e0adb7e72d40e91410 FTM
0x518f1e68daa4d67a61161832dcf2730f750fa72b037aadc4ccd29c96dade8f56159005272021-08-30 10:12:1051 days ago 0xda0d3a83653b5b49f972484ab92ae883d8619e110x95ddd98f8302a4124f6c7ba2e0adb7e72d40e91410 FTM
0x710278012317bfcb0e841c38c4fc4fa32c2868916de86642c70849ffaaec1ca6147489682021-08-16 16:22:4164 days 17 hrs ago 0xda0d3a83653b5b49f972484ab92ae883d8619e110x95ddd98f8302a4124f6c7ba2e0adb7e72d40e9145 FTM
0xcbc9f79c1d42371a4c3b60e6cb693ae9112fa634200314afaf73342716eb5c2f129622162021-07-26 7:10:2286 days 3 hrs ago 0xda0d3a83653b5b49f972484ab92ae883d8619e110x95ddd98f8302a4124f6c7ba2e0adb7e72d40e9145 FTM
0xa2f5fb0f43cddec2da4299885de05a6a5718c45bb4781a5dac7c93def1f2923e124932142021-07-20 3:48:3492 days 6 hrs ago 0xda0d3a83653b5b49f972484ab92ae883d8619e110x95ddd98f8302a4124f6c7ba2e0adb7e72d40e9145 FTM
0xaf81a0a95fd1ed972daed9a5b12effaf058baaeb4ab1976714b415928d92b293111922642021-07-03 3:56:47109 days 6 hrs ago 0xda0d3a83653b5b49f972484ab92ae883d8619e110x95ddd98f8302a4124f6c7ba2e0adb7e72d40e9145 FTM
[ Download CSV Export 
Loading

Contract Name:
0 FTM

Compiler Version
0

Optimization Enabled:
0 FTM

Other Settings:
-NA-
Block Transaction Gas Used Reward
Age Block Fee Address BC Fee Address Voting Power Jailed Incoming
Validator ID :
0 FTM

Amount Staked
0

Amount Delegated
0

Staking Total
0

Staking Start Epoch
0

Staking Start Time
0

Proof of Importance
0

Origination Score
0

Validation Score
0

Active
0

Online
0

Downtime
0 s
Address Amount claimed Rewards Created On Epoch Created On
Block Uncle Number Difficulty Gas Used Reward
Loading
Loading
Make sure to use the "Vote Down" button for any spammy posts, and the "Vote Up" for interesting conversations.